Вернуться в каталог

STARLINK-5698

АктивенСвязьVLEO
NORAD 55623·PAYLOAD·🇺🇸 United States

Запущен Feb 12, 2023 с Cape Canaveral Space Force Station

Loading…

Ближайшие Пролёты (ближайшие 24 часа)

TLE

СвежийSource: CelesTrak SupGP

Эпоха: Sep 14, 2026, 20:53 UTC

1 55623C 23020BG  26257.87062500 -.00013321  00000+0 -48237-3 0  2573
2 55623  43.0040   5.8855 0001727 280.0192   2.0042 15.27593220    19

Отслеживайте STARLINK-5698 в реальном времени с AllMySat

Download on the App Store